Burley, ID

7:51 AM MDT on May 25, 2017 (GMT -0600)
Burley Municipal

Weather History for KBYI - May, 2013

Change the Weather History Date:

Tuesday, May 7, 2013

  Actual Average Record
Temperature  
Mean Temperature 52 °F 52 °F  
Max Temperature 60 °F 65 °F 90 °F (1992)
Min Temperature 43 °F 39 °F 21 °F (2010)
Degree Days  
Heating Degree Days 13 13  
Month to date heating degree days 89 100  
Since 1 July heating degree days 6180 6488  
Cooling Degree Days 0 0  
Month to date cooling degree days 0 0  
Year to date cooling degree days 0 0  
Growing Degree Days 2 (Base 50)    
Moisture  
Dew Point 43 °F    
Average Humidity 72    
Maximum Humidity 92    
Minimum Humidity 51    
Precipitation  
Precipitation 0.04 in 0.05 in 0.45 in (2000)
Month to date precipitation 0.07 0.35  
Year to date precipitation 1.74 4.15  
Sea Level Pressure  
Sea Level Pressure 29.85 in    
Wind  
Wind Speed 6 mph (SSE)    
Max Wind Speed 17 mph    
Max Gust Speed 22 mph    
Visibility 10 miles    
Events Rain    
T = Trace of Precipitation, MM = Missing Value Source: NWS Daily Summary

Daily Weather History Graph

Daily Weather History Graph

Search for Another Location

Airport or City:

Trip Planner

Search our weather history database for the weather conditions in past years. The results will help you decide how hot, cold, wet, or windy it might be!

Date:

Astronomy

May. 07, 2013 Rise Set
Actual Time 6:21 AM MDT 8:42 PM MDT
Civil Twilight 5:50 AM MDT 9:13 PM MDT
Nautical Twilight 5:11 AM MDT 9:52 PM MDT
Astronomical Twilight 4:28 AM MDT 10:36 PM MDT
Moon 5:00 AM MDT (5/7) 6:43 PM MDT (5/7)
Length of Visible Light 15h 23m
Length of Day
14h 20m
Waning Crescent, 5% of the Moon is Illuminated
May 7
Waning Crescent
May 9
New
May 17
First Quarter
May 24
Full
May 31
Last Quarter

Hourly Weather History & Observations

Time (MDT) Temp. Windchill Dew Point Humidity Pressure Visibility Wind Dir Wind Speed Gust Speed Precip Events Conditions
12:53 AM 51.1 °F - 39.9 °F 66% 29.79 in 10.0 mi Calm Calm - N/A   Clear
1:53 AM 48.9 °F - 39.9 °F 71% 29.79 in 10.0 mi Calm Calm - N/A   Clear
2:53 AM 48.0 °F - 37.9 °F 68% 29.78 in 10.0 mi Calm Calm - N/A   Scattered Clouds
3:53 AM 51.1 °F - 39.9 °F 66% 29.78 in 10.0 mi SSE 6.9 mph - N/A   Mostly Cloudy
4:53 AM 51.1 °F - 39.9 °F 66% 29.78 in 10.0 mi SSW 6.9 mph - N/A   Overcast
5:53 AM 51.1 °F - 39.0 °F 63% 29.78 in 10.0 mi Calm Calm - N/A   Overcast
6:53 AM 52.0 °F - 42.1 °F 69% 29.79 in 10.0 mi South 8.1 mph - 0.00 in   Overcast
7:53 AM 52.0 °F - 44.1 °F 74% 29.82 in 10.0 mi South 10.4 mph - 0.00 in Rain Light Rain
8:53 AM 53.1 °F - 45.0 °F 74% 29.85 in 10.0 mi East 4.6 mph - 0.00 in   Overcast
9:53 AM 54.0 °F - 45.0 °F 72% 29.86 in 10.0 mi South 16.1 mph 21.9 mph N/A   Overcast
10:53 AM 57.0 °F - 44.1 °F 62% 29.87 in 10.0 mi SSW 13.8 mph - N/A   Overcast
11:53 AM 55.9 °F - 43.0 °F 62% 29.88 in 10.0 mi SSW 12.7 mph - N/A   Overcast
12:53 PM 55.9 °F - 42.1 °F 60% 29.88 in 10.0 mi SSW 10.4 mph - N/A   Overcast
1:26 PM 53.6 °F - 46.4 °F 77% 29.95 in 4.0 mi South 4.6 mph - 0.03 in Rain Rain
1:38 PM 53.6 °F - 46.4 °F 77% 29.95 in 10.0 mi Calm Calm - 0.04 in Rain Light Rain
1:53 PM 54.0 °F - 46.0 °F 75% 29.90 in 10.0 mi South 8.1 mph - 0.04 in Rain Light Rain
2:53 PM 55.0 °F - 48.0 °F 77% 29.88 in 10.0 mi SSW 6.9 mph - 0.00 in   Mostly Cloudy
3:53 PM 57.0 °F - 44.1 °F 62% 29.86 in 10.0 mi SSE 3.5 mph - N/A   Clear
4:53 PM 57.9 °F - 44.1 °F 60% 29.84 in 10.0 mi ENE 3.5 mph - N/A   Mostly Cloudy
5:53 PM 59.0 °F - 41.0 °F 51% 29.85 in 10.0 mi Calm Calm - N/A   Clear
6:53 PM 59.0 °F - 42.1 °F 53% 29.85 in 10.0 mi Calm Calm - N/A   Clear
7:53 PM 57.0 °F - 43.0 °F 59% 29.86 in 10.0 mi ENE 4.6 mph - N/A   Partly Cloudy
8:53 PM 53.1 °F - 45.0 °F 74% 29.87 in 10.0 mi SE 4.6 mph - N/A   Clear
9:53 PM 51.1 °F - 45.0 °F 80% 29.88 in 10.0 mi SE 5.8 mph - N/A   Mostly Cloudy
10:53 PM 46.0 °F 43.9 °F 42.1 °F 86% 29.91 in 10.0 mi SSE 4.6 mph - N/A   Clear
11:53 PM 45.0 °F - 43.0 °F 93% 29.93 in 10.0 mi Calm Calm - N/A   Clear